Погода в Сен-Жан-де-Люзе

Франция     43°23′19″N   1°39′30″W
темп.,
°C
ветер,
м/с
пор.,
м/с
влажн.,
%
обл.,
%
осадки,
мм/ч
давл.,
гПа
погр.,
м
23 апреля, пт
пт2323:00+15юв337568 0.0 101722
02:00+14ю34786 0.0 101740
05:00+13юв34775 0.0 1017103
08:00+13ююв44755 0.0 1017110
11:00+15вюв33695 0.0 101776
14:00+18в235910 0.0 101689
17:00+19ююв1357100 0.0 101591
20:00+19в3460100 0.0 101617
24 апреля, сб
сб2423:00+16юв337181 0.0 101727
02:00+15ю3368100 0.0 101634
05:00+14ююв4469100 0.0 101557
08:00+13юв44665 0.0 101691
11:00+15юв3361100 0.0 101658
14:00+18ююз125324 0.0 101571
17:00+19в1357100 0.0 101373
20:00+18всв3360100 0.0 101314
25 апреля, вс
вс2523:00+17вюв3368100 0.0 101415
02:00+15юв2271100 0.0 101314
05:00+15ю3370100 0.0 101229
08:00+15вюв3465100 0.2 101240
11:00+15ююв3466100 0.0 101250
14:00+13вюв4688100 1.4 1012216
17:00+16св5679100 0.1 1010106
20:00+17всв81077100 0.1 1009140
26 апреля, пн
пн2623:00+15в698568 0.0 1009123
02:00+14в348998 0.0 100862
05:00+14вюв3389100 0.3 100779
08:00+14ююз2286100 0.9 1007117
11:00+13ююв2287100 3.6 1007127
14:00+14всв2279100 0.1 100671
17:00+14св3377100 0.0 1005132
20:00+14с2279100 0.0 100665
27 апреля, вт
вт2723:00+13з3384100 0.3 1007211
02:00+14з6786100 0.4 1007555
05:00+14з7887100 0.1 1006606
08:00+14з9989100 0.4 1006644
11:00+13з91093100 3.4 1007671
14:00+13зсз5690100 8.5 1007433
17:00+13зсз6780100 0.3 1008689
20:00+13сз677789 0.4 1008795